Location: Observatory
(52.1446°N, 0.4624°W)
Time: 05:01:17
(UTC+01:00)

ISS - Pass Details

Date: 22 May 2018
Orbit: 402 x 407 km, 51.6° (Epoch: 24 May)

Event Time Altitude Azimuth Distance (km) Brightness Sun altitude
Rises 00:25:49 0° 261° (W) 2,318 0.0 -17.2°
Reaches altitude 10° 00:27:54 10° 261° (W) 1,459 -1.0 -17.2°
Maximum altitude 00:31:10 80° 175° (S) 414 -4.0 -17.3°
Drops below altitude 10° 00:34:26 10° 87° (E) 1,459 -1.0 -17.3°
Sets 00:36:31 0° 87° (E) 2,319 0.0 -17.4°
